Temp
11 11 11 11 11 11 11 11 11 11 11 11 11 11 10 9 10 10 11 10 9 9 10 9 10 10 10 10 10 10 10 10 10 10 10 11 11 11 11 11 11 11 11
11 11 11 11 11 11 11 11 11 11 11 11 10 10 10 10 10 9 10 9 9 9 9 9 9 9 9 9 9 9 9 10 10 10 9 10 10 10 10 10 10 11 11
11 10 10 10 10 10 10 10 10 10 10 10 10 10 9 8 8 9 9 9 9 9 9 9 9 9 9 9 9 9 9 10 10 10 9 9 9 10 10 10 10 10 11
10 10 10 10 10 10 10 10 10 10 8 9 9 8 8 8 8 8 8 8 8 8 9 9 9 9 9 9 9 8 8 9 9 9 8 8 8 9 9 8 9 9 11
9 9 9 9 9 9 10 10 10 10 9 10 9 8 8 8 8 8 8 8 8 8 8 8 9 9 9 9 9 9 8 9 8 8 7 6 6 7 7 8 8 8 10
9 9 9 9 9 9 9 10 10 10 9 9 7 6 7 7 8 8 8 8 8 8 8 8 8 9 9 8 8 8 8 8 8 8 7 5 5 7 6 7 7 8 8
9 9 8 9 9 9 9 9 9 9 9 9 6 6 8 8 8 8 8 8 8 8 8 8 8 8 8 8 8 8 8 7 7 7 7 7 4 4 5 5 6 6 8
8 9 9 9 9 9 9 9 9 9 9 9 7 7 8 7 7 8 8 7 7 7 7 8 8 8 7 7 7 7 7 7 7 7 7 6 5 3 4 6 5 5 5
9 9 8 8 9 9 9 9 9 8 8 8 8 8 8 9 7 7 8 8 7 7 7 7 7 7 7 7 6 6 6 6 6 6 6 6 4 3 2 2 4 4 4
8 8 8 8 8 8 9 8 8 8 8 8 8 8 7 7 6 7 7 7 8 7 7 7 7 7 6 6 6 5 5 5 5 6 6 5 3 2 2 2 2 2 2
8 8 8 8 8 8 8 8 8 8 7 7 7 7 7 7 6 5 6 6 6 6 6 6 6 5 5 5 5 5 5 5 5 5 5 5 3 2 2 1 3 1 1
8 8 8 8 8 8 8 8 7 7 7 7 6 6 6 6 5 4 4 5 4 6 6 6 6 6 6 5 5 4 4 4 4 5 5 4 3 5 4 4 3 3 0
8 8 8 8 8 8 7 7 7 7 6 6 6 6 6 6 6 6 5 4 4 4 6 6 6 6 5 5 5 5 5 4 4 4 4 4 4 4 3 3 3 3 3
8 7 7 7 7 7 7 6 7 7 6 6 6 6 6 5 5 5 4 3 3 2 3 5 6 6 5 5 4 4 4 4 4 4 4 4 4 3 3 3 3 3 2
7 7 7 7 7 7 6 6 6 6 6 6 6 6 5 5 5 5 4 4 3 3 4 4 4 5 5 4 4 4 3 3 3 3 3 3 3 3 3 2 2 2 2
7 7 7 7 7 7 6 6 6 6 6 5 5 5 5 5 4 4 4 3 3 2 1 3 3 3 4 3 3 3 3 3 3 3 3 3 2 2 2 2 2 1 1
7 7 7 7 7 6 6 6 6 5 5 5 5 5 5 4 4 4 3 3 3 2 1 2 2 3 3 3 3 3 2 2 3 3 2 2 2 2 2 2 1 1 1
7 7 7 7 7 7 6 6 6 6 5 5 5 4 4 4 4 4 3 3 3 3 2 1 2 1 3 2 2 1 1 2 2 2 2 2 2 2 2 1 1 1 -0
7 7 7 7 7 6 6 6 6 6 5 5 5 5 5 4 4 4 3 3 3 2 2 1 1 1 1 2 2 2 1 1 1 1 1 1 1 1 1 1 1 0 -1
7 7 7 7 7 7 6 6 5 5 5 5 5 5 5 4 4 4 3 3 3 2 2 1 1 1 1 1 0 1 0 0 0 0 0 0 -0 0 0 0 0 -0 -1
7 7 7 7 6 6 6 5 4 4 5 5 5 5 5 5 4 4 3 2 2 2 2 1 1 1 0 0 1 1 -0 0 -1 -2 -1 -1 -1 -1 -0 -0 -1 -1 -2
7 6 6 6 6 6 5 5 4 4 4 4 4 5 4 4 4 4 3 3 2 2 2 1 1 0 1 1 0 -1 -1 -2 -3 -3 -3 -2 -3 -2 -2 -1 -2 -2 -3
6 6 5 5 5 5 4 4 4 3 3 3 4 3 3 3 3 4 3 3 2 1 1 1 1 1 1 1 0 -1 -2 -2 -3 -4 -4 -5 -4 -5 -4 -2 -2 -3 -3
5 5 5 4 4 4 3 3 3 3 3 2 2 1 2 2 2 2 2 2 2 1 1 1 1 2 1 0 -1 -1 -2 -3 -4 -5 -5 -6 -5 -5 -5 -5 -4 -3 -4
4 4 3 3 3 2 2 2 1 1 1 1 0 0 0 1 1 1 1 1 1 1 1 1 1 1 0 -1 -2 -3 -4 -4 -5 -5 -5 -6 -6 -6 -6 -6 -5 -5 -4
3 3 2 2 1 1 1 0 0 -0 -0 -0 -1 -1 -1 -1 -0 -1 -2 -2 -2 -2 -0 0 0 -1 -1 -1 -2 -4 -4 -5 -5 -5 -5 -6 -6 -6 -6 -6 -5 -5 -5
Height
1539 1538 1537 1536 1535 1534 1534 1533 1532 1531 1530 1529 1528 1527 1527 1526 1525 1524 1523 1523 1523 1523 1522 1522 1521 1520 1519 1518 1517 1515 1515 1514 1513 1512 1511 1510 1509 1508 1507 1506 1506 1505 1505
1537 1537 1536 1535 1534 1533 1533 1532 1531 1530 1529 1528 1527 1526 1525 1526 1525 1524 1523 1523 1522 1522 1521 1521 1520 1520 1519 1517 1516 1514 1514 1512 1512 1511 1510 1509 1508 1507 1506 1504 1503 1502 1501
1538 1536 1535 1535 1534 1533 1532 1531 1530 1529 1529 1528 1526 1526 1525 1526 1525 1524 1523 1523 1522 1522 1521 1520 1519 1518 1517 1516 1515 1513 1512 1510 1510 1509 1509 1508 1506 1505 1504 1503 1501 1500 1498
1537 1536 1535 1534 1533 1532 1531 1531 1530 1529 1528 1526 1526 1525 1525 1526 1525 1524 1524 1523 1522 1522 1521 1519 1518 1516 1515 1514 1513 1511 1509 1508 1507 1507 1506 1505 1504 1503 1502 1500 1499 1497 1495
1537 1536 1535 1534 1533 1532 1531 1531 1530 1530 1528 1527 1525 1525 1525 1525 1525 1524 1523 1523 1522 1521 1519 1518 1516 1515 1513 1512 1511 1509 1508 1506 1505 1504 1504 1503 1501 1500 1500 1499 1497 1495 1493
1536 1536 1535 1534 1533 1532 1531 1530 1529 1529 1528 1527 1526 1525 1524 1524 1524 1523 1522 1521 1520 1519 1518 1517 1515 1513 1511 1510 1508 1507 1505 1504 1503 1502 1501 1500 1498 1496 1497 1497 1494 1492 1491
1536 1535 1534 1533 1532 1531 1530 1530 1529 1529 1528 1527 1527 1525 1523 1523 1522 1521 1520 1520 1518 1517 1516 1515 1513 1512 1510 1508 1506 1505 1504 1502 1501 1500 1498 1497 1496 1494 1493 1493 1492 1490 1489
1535 1534 1534 1532 1531 1530 1529 1529 1529 1529 1528 1527 1527 1526 1525 1524 1520 1519 1518 1517 1516 1515 1513 1512 1511 1509 1507 1505 1504 1503 1501 1500 1499 1497 1496 1495 1493 1491 1490 1489 1488 1487 1486
1533 1533 1532 1531 1530 1529 1529 1528 1528 1528 1527 1526 1525 1525 1524 1522 1520 1517 1515 1514 1513 1512 1511 1509 1508 1506 1505 1503 1501 1500 1499 1497 1496 1494 1493 1492 1490 1489 1487 1485 1484 1484 1482
1532 1531 1531 1530 1529 1528 1527 1527 1526 1526 1525 1524 1523 1522 1521 1520 1520 1517 1513 1512 1510 1509 1508 1506 1505 1504 1503 1501 1499 1497 1496 1494 1493 1491 1490 1488 1488 1486 1484 1482 1480 1480 1478
1530 1529 1528 1528 1527 1526 1525 1524 1524 1523 1523 1522 1521 1520 1518 1517 1516 1516 1514 1512 1508 1506 1505 1503 1502 1500 1499 1498 1497 1495 1493 1492 1490 1489 1487 1485 1484 1482 1480 1478 1477 1476 1475
1528 1527 1525 1525 1524 1524 1523 1522 1521 1520 1520 1519 1518 1517 1516 1515 1514 1513 1511 1509 1506 1504 1501 1499 1497 1495 1494 1493 1493 1492 1490 1488 1487 1485 1483 1482 1480 1478 1477 1475 1473 1472 1471
1524 1523 1522 1522 1521 1521 1519 1519 1518 1517 1516 1515 1514 1513 1512 1510 1509 1508 1506 1504 1501 1498 1496 1494 1492 1491 1489 1488 1487 1486 1485 1484 1483 1481 1480 1478 1476 1474 1473 1471 1469 1468 1467
1521 1520 1519 1519 1518 1517 1516 1515 1514 1513 1512 1511 1510 1508 1507 1505 1504 1503 1503 1502 1499 1495 1491 1489 1487 1486 1485 1483 1482 1481 1479 1479 1478 1477 1475 1474 1472 1470 1469 1467 1465 1463 1462
1518 1517 1516 1515 1514 1513 1512 1510 1509 1508 1507 1506 1504 1503 1501 1500 1499 1497 1496 1495 1494 1492 1488 1486 1483 1481 1479 1478 1477 1476 1474 1473 1472 1471 1470 1469 1467 1465 1464 1462 1460 1458 1457
1515 1514 1513 1511 1510 1508 1507 1505 1504 1503 1502 1500 1498 1497 1496 1494 1493 1491 1490 1489 1488 1486 1483 1481 1478 1476 1474 1472 1471 1470 1469 1467 1466 1465 1464 1463 1461 1459 1458 1456 1455 1453 1452
1512 1511 1509 1507 1505 1504 1502 1500 1499 1497 1495 1494 1492 1490 1488 1487 1485 1484 1482 1482 1480 1478 1474 1473 1473 1471 1468 1466 1465 1463 1462 1461 1459 1458 1457 1456 1455 1454 1452 1450 1448 1448 1446
1508 1507 1505 1503 1501 1499 1497 1495 1493 1491 1488 1486 1485 1483 1480 1480 1477 1476 1474 1472 1471 1470 1468 1464 1466 1464 1462 1460 1459 1457 1456 1453 1452 1451 1449 1448 1448 1447 1445 1444 1442 1441 1440
1506 1504 1502 1500 1497 1495 1492 1489 1487 1484 1482 1479 1477 1474 1472 1470 1467 1466 1464 1462 1461 1460 1457 1454 1452 1454 1454 1453 1450 1449 1448 1447 1445 1443 1442 1441 1440 1439 1437 1436 1435 1434 1433
1503 1501 1498 1495 1493 1490 1487 1484 1481 1478 1474 1471 1468 1465 1463 1460 1458 1457 1455 1453 1451 1449 1448 1446 1443 1443 1444 1444 1441 1440 1438 1438 1436 1435 1433 1432 1432 1431 1429 1429 1428 1427 1427
1499 1496 1494 1491 1488 1484 1482 1478 1474 1470 1467 1463 1460 1457 1453 1452 1450 1448 1445 1443 1441 1439 1437 1434 1431 1431 1431 1432 1430 1431 1429 1430 1428 1427 1425 1424 1423 1423 1422 1421 1421 1420 1420
1495 1492 1489 1486 1482 1479 1475 1472 1468 1463 1460 1455 1451 1449 1445 1442 1440 1438 1436 1432 1431 1427 1425 1423 1421 1419 1419 1420 1422 1421 1421 1420 1419 1418 1417 1417 1416 1415 1414 1414 1413 1412 1413
1491 1488 1484 1480 1476 1473 1469 1465 1461 1454 1450 1446 1443 1439 1436 1432 1430 1427 1424 1420 1417 1415 1414 1414 1410 1409 1409 1411 1412 1412 1411 1411 1410 1412 1409 1409 1411 1408 1407 1406 1405 1404 1405
1485 1482 1477 1473 1468 1465 1461 1457 1452 1446 1441 1437 1433 1430 1426 1422 1420 1417 1414 1408 1404 1402 1401 1401 1397 1397 1398 1400 1400 1401 1402 1401 1401 1402 1402 1400 1403 1401 1401 1399 1397 1397 1396
1479 1474 1470 1466 1462 1457 1453 1449 1444 1437 1432 1428 1425 1421 1417 1412 1410 1409 1403 1396 1391 1388 1389 1388 1386 1386 1387 1389 1390 1391 1390 1392 1390 1391 1393 1392 1394 1394 1394 1392 1390 1389 1388
1472 1468 1464 1460 1455 1451 1447 1443 1437 1431 1425 1420 1415 1411 1407 1403 1400 1397 1393 1388 1380 1378 1379 1376 1373 1373 1374 1375 1377 1377 1379 1380 1381 1382 1383 1385 1386 1388 1387 1385 1384 1382 1380
Wind_Speed
4 4 4 4 5 5 6 6 6 6 6 6 5 3 3 2 3 2 1 1 1 4 5 3 5 5 2 4 5 6 3 3 5 6 6 7 9 12 15 15 16 16 20
4 3 4 5 6 6 7 7 7 6 6 4 3 2 1 1 2 3 2 3 2 3 2 3 2 3 3 2 1 2 5 6 6 5 5 5 7 9 11 13 14 18 19
3 3 3 4 5 6 6 6 6 6 5 2 2 0 2 2 2 2 2 2 3 3 3 4 4 4 4 5 6 8 10 12 12 13 12 11 12 13 14 15 13 16 17
2 3 4 5 5 5 6 6 6 6 5 2 1 2 4 2 0 1 2 3 4 4 5 6 7 8 8 8 7 7 9 10 10 8 6 10 12 11 11 11 13 13 16
3 4 4 4 5 5 6 6 7 7 5 4 2 2 2 2 2 2 3 4 5 6 7 7 8 9 9 9 9 10 11 11 10 9 7 9 12 13 11 10 12 12 14
4 3 3 3 4 5 6 6 5 4 3 2 0 1 3 4 5 6 6 8 8 9 8 9 10 10 10 9 9 9 10 10 11 10 10 10 13 15 8 9 12 14 7
3 3 4 4 4 5 6 6 5 5 4 4 2 4 5 7 9 10 10 11 11 11 10 10 10 10 10 10 10 9 9 9 10 10 10 10 10 13 7 5 10 13 11
4 4 4 5 5 6 6 6 6 6 6 5 4 5 5 7 10 11 12 13 13 12 12 11 11 11 10 10 9 9 9 9 10 10 11 11 11 11 12 10 6 10 12
5 6 7 7 7 7 7 7 7 6 6 7 6 5 4 4 5 12 11 13 13 14 14 13 14 12 11 11 10 10 9 9 9 10 11 11 9 10 10 11 10 12 14
8 9 9 8 9 9 8 8 7 8 8 8 9 9 10 12 5 6 9 12 15 15 15 18 16 14 13 12 12 11 11 10 11 11 12 11 10 10 11 12 12 10 12
11 11 10 11 11 11 11 10 10 10 10 10 11 12 12 13 13 11 12 9 12 17 18 18 17 16 15 14 14 14 13 13 13 14 13 13 11 12 14 14 15 11 10
13 13 13 13 13 13 13 13 13 13 12 13 13 13 13 12 10 11 11 12 14 17 20 20 20 19 17 17 17 16 14 14 15 14 13 14 15 17 17 18 18 16 12
14 15 15 16 16 15 16 16 16 16 16 16 17 17 17 17 17 18 18 17 16 16 20 21 19 19 19 19 19 18 17 18 19 17 16 16 17 19 18 19 20 18 16
15 17 18 18 18 18 18 19 19 20 20 20 21 21 22 21 20 20 19 16 15 14 17 20 20 19 19 19 19 19 20 20 21 20 20 19 19 19 18 19 21 22 17
15 17 18 19 20 20 21 22 23 23 24 25 25 25 26 25 24 24 24 23 20 15 17 15 18 20 18 19 20 21 23 23 22 22 21 21 21 21 19 19 21 22 20
15 16 16 18 19 21 22 24 26 26 27 28 29 29 29 30 29 28 28 27 27 25 22 17 21 23 23 25 25 25 25 24 24 23 23 23 23 21 21 21 21 22 22
16 16 18 19 21 22 24 26 27 29 30 30 31 32 32 31 32 32 32 32 32 31 30 31 28 29 29 29 28 28 27 26 26 26 25 25 24 23 23 22 22 23 23
15 16 18 20 21 22 24 26 27 29 32 34 34 35 36 34 35 34 35 36 36 36 36 34 32 32 34 31 30 29 29 29 28 28 27 27 25 25 24 23 23 23 23
12 14 15 16 18 20 21 23 25 27 29 31 32 34 36 37 38 38 38 39 39 39 39 40 40 36 36 35 34 33 32 31 30 30 29 27 26 25 24 24 24 24 25
14 16 17 18 20 21 22 23 24 26 27 29 30 33 35 37 39 39 40 41 41 40 40 41 43 42 39 38 37 36 33 31 31 30 30 27 27 27 26 24 22 23 24
16 18 20 21 22 24 24 25 27 29 31 32 32 33 34 35 36 37 40 42 43 43 43 45 46 45 43 42 41 37 33 31 29 31 30 28 28 26 24 21 21 23 24
19 21 23 24 25 27 27 27 29 32 33 35 37 36 36 36 36 36 37 40 42 45 46 46 47 47 46 44 40 39 36 30 26 24 25 22 22 23 23 22 22 24 25
24 25 27 27 28 28 28 30 31 33 35 37 38 39 40 39 38 38 39 40 42 43 45 46 48 47 46 42 40 37 37 33 30 21 25 22 21 23 22 22 22 22 25
29 29 30 30 32 32 31 31 31 33 36 36 37 37 36 38 38 39 40 43 44 44 45 46 48 47 45 43 40 38 35 35 29 24 21 24 20 22 19 18 21 22 23
30 30 31 31 32 32 29 29 29 31 33 35 34 34 35 36 36 34 38 44 46 46 43 43 44 46 45 42 39 37 38 32 31 28 22 24 21 20 18 18 18 22 24
31 31 32 31 30 30 28 28 27 31 34 35 35 35 36 38 35 31 32 37 44 45 42 42 44 45 44 43 41 40 38 35 33 23 24 26 22 18 10 11 15 13 15
Wind_Direction
350 353 352 352 352 350 348 343 341 337 336 334 331 320 327 299 329 346 342 111 237 220 226 224 238 240 292 337 324 297 314 28 18 7 349 323 296 282 275 276 279 277 276
1 1 3 360 358 358 353 351 348 350 350 340 320 279 295 295 40 37 45 38 7 14 331 270 300 273 239 187 12 323 293 270 267 288 312 326 321 320 319 313 296 286 285
352 354 354 351 353 356 357 1 5 6 6 350 322 226 94 82 50 36 24 18 10 359 347 332 321 320 319 290 296 290 290 288 289 289 290 292 285 288 294 297 315 305 297
329 335 344 346 351 354 360 2 3 11 24 4 225 143 148 138 153 350 352 353 347 340 329 323 322 319 316 309 305 313 308 296 289 286 304 285 281 286 295 301 306 324 319
327 334 336 349 353 351 355 359 359 357 349 333 12 112 137 191 250 289 294 300 304 311 312 313 314 310 305 300 295 293 298 305 309 310 292 289 286 286 285 306 310 315 306
329 332 339 344 341 343 351 353 351 345 343 324 348 219 218 241 256 266 277 284 290 300 302 311 313 308 302 296 292 290 293 300 302 298 301 315 313 303 308 315 307 294 314
314 315 318 322 334 340 340 338 334 321 317 314 303 302 297 264 264 266 270 276 282 288 292 299 304 300 297 293 292 291 290 292 299 303 299 296 326 325 312 299 308 300 283
299 306 303 315 324 329 329 326 325 315 308 298 262 264 273 270 269 263 269 272 277 280 282 288 299 292 286 285 287 292 295 296 299 304 304 303 303 315 318 297 278 298 293
297 289 290 304 312 315 316 316 314 307 300 291 275 249 273 261 276 277 271 271 272 278 285 289 298 291 287 284 288 295 294 296 297 300 301 299 304 315 314 320 298 274 283
286 282 288 295 298 302 303 303 301 295 291 287 283 268 260 264 275 287 281 272 278 281 282 294 296 291 289 280 285 282 286 292 295 297 295 294 299 301 302 310 314 312 308
281 281 284 287 288 290 292 295 294 291 289 286 283 283 278 275 269 265 284 281 286 284 288 288 286 288 283 275 280 279 284 291 298 301 298 297 293 294 300 306 308 308 306
280 280 279 281 283 285 287 288 287 287 287 285 283 280 276 273 272 269 274 285 283 282 290 287 286 284 282 278 280 278 281 287 294 292 289 286 286 292 294 294 298 300 302
283 280 280 279 280 281 283 283 285 286 286 286 285 284 280 274 271 270 267 269 272 282 284 283 280 280 278 277 277 279 282 290 296 296 294 291 292 297 298 297 296 298 295
290 282 278 277 280 281 282 284 284 283 284 282 281 281 279 278 276 273 270 269 273 270 282 277 281 277 275 273 271 275 280 285 289 290 290 291 291 292 295 294 295 297 293
295 287 282 281 282 282 283 284 285 285 284 282 280 278 278 277 276 275 272 270 263 265 269 272 274 282 275 270 271 275 281 284 286 286 287 288 290 291 291 289 291 292 294
301 301 296 291 289 288 288 286 286 285 283 283 282 281 279 279 278 275 273 271 266 260 260 266 276 277 278 277 278 278 280 284 285 284 284 283 284 284 286 289 289 289 289
300 297 294 293 292 291 290 289 288 287 286 286 283 282 280 278 277 275 273 271 268 265 260 267 269 275 277 278 279 281 280 283 282 282 281 280 280 281 282 284 286 286 285
302 301 300 298 297 295 292 290 290 289 287 286 284 281 281 279 277 276 273 272 270 269 266 265 271 271 277 278 277 275 278 279 280 280 278 276 276 275 277 280 282 282 280
319 317 315 312 310 307 305 302 298 294 290 288 286 282 281 279 275 274 273 271 271 269 267 268 269 269 271 273 276 277 277 280 281 281 278 277 274 274 276 277 280 279 275
323 321 319 316 313 309 307 305 301 298 295 292 289 286 283 279 277 276 273 272 271 269 268 266 268 270 270 270 271 273 272 280 283 280 278 276 275 275 275 274 275 273 272
322 319 316 312 310 307 306 305 302 299 297 294 292 291 289 286 282 278 274 271 270 268 267 267 267 268 267 267 266 271 272 274 276 274 273 273 274 272 271 269 271 269 268
325 321 318 315 311 308 307 303 300 297 295 294 294 292 291 290 287 285 278 273 268 267 266 265 266 264 266 268 269 267 268 264 271 275 265 266 264 266 268 269 271 270 267
322 321 319 317 314 311 309 305 301 298 296 294 292 292 290 289 288 287 285 280 273 267 264 264 264 264 268 270 270 265 263 265 262 251 269 261 259 263 266 268 272 266 263
324 323 321 320 318 317 316 312 308 302 300 299 298 297 295 294 291 288 287 284 279 274 267 262 260 262 263 265 265 267 266 272 263 250 245 256 261 258 263 264 272 272 266
322 321 321 320 319 319 320 317 314 308 304 303 303 300 298 299 299 296 287 284 281 277 274 269 265 263 263 262 261 259 259 261 251 248 245 246 254 261 260 263 268 275 269
320 320 319 320 321 322 323 324 321 314 312 312 310 309 308 307 304 300 294 287 283 281 282 275 267 261 258 257 257 255 260 255 250 247 243 235 247 253 262 261 275 268 267